Home > Weather > Belgrade > Past weeks

Flag for Serbia Weather for the Past 2 Weeks in Belgrade, Serbia

Now
45 °F

Clear.


Feels Like: 37 °F
Forecast: 41 / 53 °F
Wind: 16 mph from Southeast

Location: Belgrade Surcin Airport

Current Time: Feb 13, 2016 at 12:07:41 AM

Latest Report: Feb 12, 2016 at 11:30 PM


Visibility: 10 mi

Pressure: 29.59 "Hg

Humidity: 71%

Dew point: 36 °F

Location of BelgradeLocation

Historic Weather in Belgrade — Graph

°F

Belgrade Temperature Yesterday

Maximum temperature yesterday: 54 °F (at 1:30 PM)
Minimum temperature yesterday: 34 °F (at 6:30 AM)
Average temperature yesterday: 45 °F

High & Low Weather Summary for the Past Weeks

 TemperatureHumidityPressure
High64 °F (Feb 9, 11:30 AM)100% (Jan 29, 8:00 PM)30.48 "Hg (Jan 29, 8:00 PM)
Low30 °F (Jan 30, 4:00 AM)30% (Feb 11, 1:30 PM)29.27 "Hg (Feb 10, 10:30 AM)
Average46 °F74%30.06 "Hg
* Reported Jan 28 10:00 PM — Feb 12 10:30 PM, Belgrade, Weather by CustomWeather, © 2016

Note: Actual official high and low records may vary slightly from our data, if they occured in-between our weather recording intervals... More about our weather records

Advertising

Belgrade Weather History for the Previous 24 Hours

 ConditionsComfort  
Time TempWeatherWind HumidityBarometerVisibility
10:30 PM
Fri, Feb 12
46 °FClear.16 mph66%29.62 "Hg10 mi
10:00 PM46 °FClear.15 mph66%29.65 "Hg10 mi
9:30 PM46 °FClear.15 mph66%29.65 "Hg10 mi
9:00 PM48 °FClear.16 mph62%29.68 "Hg10 mi
8:30 PM48 °FClear.10 mph62%29.68 "Hg10 mi
8:00 PM48 °FClear.15 mph62%29.68 "Hg10 mi
7:30 PM48 °FClear.14 mph62%29.68 "Hg10 mi
7:00 PM46 °FClear.15 mph62%29.68 "Hg10 mi
6:30 PM46 °FClear.12 mph62%29.71 "Hg10 mi
6:00 PM48 °FClear.13 mph54%29.71 "Hg10 mi
5:30 PM46 °FClear.13 mph57%29.71 "Hg10 mi
5:00 PM50 °FSunny.12 mph43%29.71 "Hg10 mi
4:30 PM52 °FSunny.9 mph41%29.71 "Hg10 mi
4:00 PM54 °FSunny.14 mph38%29.71 "Hg10 mi
3:30 PM54 °FSunny.14 mph35%29.74 "Hg10 mi
3:00 PM54 °FSunny.16 mph38%29.74 "Hg10 mi
2:30 PM54 °FSunny.15 mph41%29.74 "Hg10 mi
2:00 PM54 °FSunny.12 mph41%29.77 "Hg10 mi
1:30 PM54 °FSunny.13 mph41%29.77 "Hg10 mi
1:00 PM52 °FPassing clouds.10 mph44%29.77 "HgN/A
12:30 PM52 °FPassing clouds.10 mph47%29.77 "HgN/A
12:00 PM50 °FPassing clouds.9 mph50%29.80 "HgN/A
11:30 AM50 °FSunny.9 mph50%29.80 "Hg10 mi
11:00 AM50 °FSunny.10 mph50%29.83 "Hg10 mi
10:30 AM48 °FSunny.9 mph54%29.83 "Hg10 mi
10:00 AM48 °FSunny.9 mph58%29.83 "Hg10 mi
9:30 AM46 °FSunny.9 mph62%29.83 "Hg10 mi
9:00 AM45 °FSunny.7 mph71%29.86 "Hg10 mi
8:30 AM41 °FSunny.9 mph81%29.86 "Hg10 mi
8:00 AM39 °FSunny.8 mph81%29.86 "Hg10 mi
7:30 AM39 °FSunny.6 mph81%29.86 "Hg10 mi
7:00 AM36 °FSunny.8 mph81%29.86 "Hg10 mi
6:30 AM34 °FClear.8 mph87%29.86 "Hg10 mi
6:00 AM36 °FClear.6 mph81%29.86 "Hg10 mi
5:30 AM37 °FClear.3 mph81%29.86 "Hg10 mi
5:00 AM37 °FClear.3 mph81%29.86 "Hg10 mi
4:30 AM36 °FClear.5 mph87%29.86 "Hg10 mi
4:00 AM36 °FClear.7 mph87%29.83 "Hg10 mi
3:30 AM36 °FClear.9 mph81%29.83 "Hg10 mi
3:00 AM39 °FClear.7 mph75%29.86 "Hg10 mi
2:30 AM41 °FClear.8 mph70%29.86 "Hg10 mi
2:00 AM41 °FClear.6 mph70%29.86 "Hg10 mi
1:30 AM41 °FClear.6 mph70%29.83 "Hg10 mi
1:00 AM41 °FClear.9 mph70%29.83 "Hg10 mi
12:30 AM43 °FClear.9 mph61%29.83 "Hg10 mi
12:00 AM43 °FClear.8 mph66%29.83 "Hg10 mi
Weather by CustomWeather, © 2016

See weather overviewHow to use our weather pages